Preview of NWS' New Version of Forecast
This preview is not operational and should not be used for support decisions.

Regional Weather Roundup (RWR)

Issued by National Weather Service (NWS)

                            
000
ASUS43 KDMX 181406
RWRIA 

WEATHER ROUNDUP FOR IOWA
NATIONAL WEATHER SERVICE DES MOINES IA
900 AM CDT TUE JUN 18 2019

NOTE: "FAIR" INDICATES FEW OR NO CLOUDS BELOW 12,000 FEET WITH NO
SIGNIFICANT WEATHER AND/OR OBSTRUCTIONS TO VISIBILITY.

* - THESE STATIONS ARE NOT NWS STATIONS...THUS NOT UNDER NWS
QUALITY CONTROL.  THEY ALSO DO NOT REPORT WEATHER SUCH 
AS PRECIPITATION OR FOG.  

IAZ001>003-012>014-020>022-031>034-043>046-181500-
   NORTHWEST IOWA
  
CITY           SKY/WX    TMP DP  RH WIND       PRES   REMARKS
CARROLL *      PTSUNNY   64  64 100 NE6       29.98S                  
CHEROKEE *     CLOUDY    60  60 100 E5        30.01S                  
DENISON *      PTSUNNY   64  64 100 VRB6      30.00S FOG              
LE MARS *      CLOUDY    63  61  94 NE8       30.01S                  
SHELDON *      MOSUNNY   66  59  77 NE8       30.00F                  
SIOUX CITY     RAIN      60  58  92 NE8       30.01S FOG              
SPENCER        CLOUDY    64  59  83 CALM      30.01F                  
STORM LAKE *   SUNNY     59  59 100 NE14      29.98S                  
$$
 
IAZ055>058-069>071-079>083-090>094-181500-
   SOUTHWEST IOWA
  
CITY           SKY/WX    TMP DP  RH WIND       PRES   REMARKS
ATLANTIC *     MOSUNNY   68  68 100 E5        29.96S                  
AUDUBON *      DRIZZLE   66  63  88 CALM      29.99S                  
CLARINDA *     PTSUNNY   72  68  88 CALM      29.97F                  
COUNCIL BLFS * PTSUNNY   66  66 100 NE6       29.95S FOG              
CRESTON *      MOSUNNY   68  64  88 CALM      29.98S                  
HARLAN  *      MOSUNNY   66  66 100 CALM      29.98R FOG              
LAMONI         SUNNY     69  63  81 CALM      29.97F                  
RED OAK *      PTSUNNY   70  66  88 E3        29.96S                  
SHENANDOAH *   PTSUNNY   70  66  88 CALM      29.95S                  
$$
 
IAZ047>049-059>061-072>074-084-181500-
   CENTRAL IOWA
  
CITY           SKY/WX    TMP DP  RH WIND       PRES   REMARKS
AMES           LGT RAIN  65  64  97 VRB3      29.98R                  
ANKENY *       PTSUNNY   70  64  83 CALM      29.98S                  
BOONE *        LGT RAIN  64  64 100 NE5       29.98S                  
CHARITON *     MOSUNNY   68  66  94 CALM      29.97F                  
DES MOINES     CLOUDY    68  63  84 S5        29.97S                  
GRINNELL*      CLOUDY    67  62  86 W5        29.99F                  
KNOXVILLE *    MOSUNNY   68  63  83 SW6       29.98R                  
MARSHALLTOWN   CLOUDY    66  64  93 S6        29.97S                  
NEWTON *       MOSUNNY   68  66  94 S3        29.98S                  
PELLA *        MOSUNNY   69  62  77 CALM      29.99S                  
PERRY *        CLOUDY    67  67 100 CALM      29.98R                  
$$
 
IAZ004>006-015-016-023>025-035-036-181500-
   NORTH CENTRAL IOWA
  
CITY           SKY/WX    TMP DP  RH WIND       PRES   REMARKS
ALGONA *       SUNNY     61  61 100 CALM      30.00S                  
CLARION *      CLOUDY    63  61  94 N7        30.00S FOG              
ESTHERVILLE    MOSUNNY   64  56  75 N8        30.01S                  
FORT DODGE *   LGT RAIN  61  59  93 N7        30.00S FOG              
MASON CITY     LGT RAIN  62  61  96 N5        30.01S                  
FOREST CITY *  DRIZZLE   63  61  94 N3        30.01R                  
IOWA FALLS *   RAIN      65  65  98 N3        30.00R                  
$$

IAZ007>011-017>019-026>030-037>042-050>054-066-181500-
   NORTHEAST IOWA
  
CITY           SKY/WX    TMP DP  RH WIND       PRES   REMARKS
CEDAR RAPIDS   FAIR      66  61  84 S3        29.97S                  
CHARLES CITY * LGT RAIN  63  63 100 N8        29.99R                  
CLINTON *      FAIR      75  64  68 CALM      29.98F                  
DECORAH *      PTSUNNY   64  64 100 CALM      29.97R FOG              
DUBUQUE        CLOUDY    64  60  87 W3        29.99R                  
MONTICELLO *   PTSUNNY   66  64  94 CALM      29.98S                  
OELWEIN *      PTSUNNY   66  64  94 SW6       29.99S                  
WATERLOO       HVY RAIN  66  63  90 SW7       29.97R VSB 1            
$$
 
IAZ064-065-067-068-078-181500-
   EAST CENTRAL IOWA
  
CITY           SKY/WX    TMP DP  RH WIND       PRES   REMARKS
DAVENPORT      FAIR      68  60  75 CALM      29.99R                  
IOWA CITY      FAIR      66  60  81 CALM      29.99S                  
MT. PLEASANT * MOSUNNY   70  68  94 CALM      29.97F                  
MUSCATINE *    FAIR      66  61  82 CALM      29.98S                  
QUAD CITIES    FAIR      71  61  70 CALM      29.96S                  
$$
 
IAZ062-063-075>077-085>089-095>099-181500-
   SOUTHEAST IOWA
  
CITY           SKY/WX    TMP DP  RH WIND       PRES   REMARKS
BURLINGTON     SUNNY     68  62  81 E3        29.96S                  
FAIRFIELD *    MOSUNNY   68  63  83 CALM      29.97S                  
FORT MADISON * SUNNY     70  64  83 CALM      29.97S                  
KEOKUK *       SUNNY     68  64  88 CALM      29.96S                  
OSKALOOSA *    PTSUNNY   64  61  88 CALM      29.98F FOG              
CENTERVILLE *  FAIR      66  64  94 CALM      29.99S                  
OTTUMWA        CLOUDY    67  63  87 CALM      29.97F                  
WASHINGTON *   MOSUNNY   66  66 100 CALM      29.98F                  
$$

ABBREVIATIONS USED IN REMARKS
   TC - TEMPERATURES IN CELSIUS
  WCI - WIND CHILL INDEX
   HX - HEAT INDEX
  VSB - VISIBILITY  
$$